When you browse on this site, cookies collect data to enhance your experience and personalize the content and advertising you see.
Visit our Privacy Policy to learn more. By continuing to use the site, you agree to this use of cookies and data.
  • In Netherlands
  • List of Countries
  • For 7 days
  • Water Temperature
  • Weather Map
  • Weather Widgets
  • user-avatar
    Login

    Hourly Weather Lowech

    Today, 18 August, Sunday

    Time Temperature Precipitation Wind Pressure Humidity
    00:00 +20°C° 0 mm 1 mps 736 mmHg 54%
    01:00 +20°C° 0 mm 1 mps 737 mmHg 54%
    02:00 +20°C° 0 mm 1 mps 737 mmHg 54%
    03:00 +19°C° 0 mm 1 mps 737 mmHg 56%
    04:00 +19°C° 0 mm 1 mps 737 mmHg 58%
    05:00 +18°C° 0 mm 1 mps 737 mmHg 59%
    06:00 +20°C° 0 mm 1 mps 737 mmHg 57%
    07:00 +22°C° 0 mm 1 mps 737 mmHg 54%
    08:00 +24°C° 0 mm 1 mps 737 mmHg 51%
    09:00 +25°C° 0 mm 2 mps 737 mmHg 47%
    10:00 +27°C° 0 mm 2 mps 737 mmHg 42%
    11:00 +28°C° 0 mm 3 mps 737 mmHg 38%
    12:00 +29°C° 0 mm 2 mps 737 mmHg 36%
    13:00 +30°C° 0 mm 2 mps 737 mmHg 33%
    14:00 +30°C° 0 mm 2 mps 737 mmHg 31%
    15:00 +30°C° 0 mm 2 mps 737 mmHg 31%
    16:00 +30°C° 0 mm 2 mps 736 mmHg 31%
    17:00 +31°C° 0 mm 2 mps 736 mmHg 31%
    18:00 +28°C° 0 mm 2 mps 736 mmHg 35%
    19:00 +26°C° 0 mm 1 mps 737 mmHg 40%
    20:00 +23°C° 0 mm 1 mps 737 mmHg 44%
    21:00 +23°C° 0 mm 1 mps 737 mmHg 45%
    22:00 +22°C° 0 mm 1 mps 737 mmHg 46%
    23:00 +22°C° 0 mm 1 mps 737 mmHg 47%

    Tomorrow, 19 August, Monday

    Time Temperature Precipitation Wind Pressure Humidity
    00:00 +21°C° 0 mm 1 mps 737 mmHg 48%
    01:00 +21°C° 0 mm 1 mps 737 mmHg 49%
    02:00 +20°C° 0 mm 1 mps 737 mmHg 50%
    03:00 +20°C° 0 mm 1 mps 738 mmHg 51%
    04:00 +20°C° 0 mm 1 mps 738 mmHg 52%
    05:00 +20°C° 0 mm 1 mps 738 mmHg 52%
    06:00 +19°C° 0 mm 0 mps 738 mmHg 49%
    07:00 +21°C° 0 mm 0 mps 738 mmHg 46%
    08:00 +23°C° 0 mm 0 mps 738 mmHg 43%
    09:00 +27°C° 0 mm 1 mps 738 mmHg 39%
    10:00 +29°C° 0 mm 1 mps 738 mmHg 34%
    11:00 +30°C° 0 mm 2 mps 738 mmHg 30%
    12:00 +31°C° 0 mm 2 mps 738 mmHg 29%
    13:00 +32°C° 0 mm 2 mps 738 mmHg 28%
    14:00 +32°C° 0 mm 2 mps 738 mmHg 27%
    15:00 +32°C° 0 mm 2 mps 738 mmHg 28%
    16:00 +33°C° 0 mm 3 mps 738 mmHg 29%
    17:00 +33°C° 0 mm 3 mps 737 mmHg 30%
    18:00 +29°C° 0 mm 2 mps 737 mmHg 34%
    19:00 +27°C° 0 mm 2 mps 738 mmHg 38%
    20:00 +25°C° 0 mm 1 mps 738 mmHg 42%
    21:00 +24°C° 0 mm 1 mps 738 mmHg 43%
    22:00 +23°C° 0 mm 1 mps 738 mmHg 44%
    23:00 +22°C° 0 mm 1 mps 739 mmHg 45%

    Day after tomorrow, 20 August, Tuesday

    Time Temperature Precipitation Wind Pressure Humidity
    00:00 +22°C° 0 mm 1 mps 739 mmHg 46%
    01:00 +21°C° 0 mm 1 mps 739 mmHg 47%
    02:00 +21°C° 0 mm 1 mps 739 mmHg 49%
    03:00 +21°C° 0 mm 1 mps 739 mmHg 50%
    04:00 +20°C° 0 mm 1 mps 739 mmHg 51%
    05:00 +20°C° 0 mm 1 mps 739 mmHg 52%
    06:00 +22°C° 0 mm 1 mps 739 mmHg 49%
    07:00 +22°C° 0 mm 0 mps 740 mmHg 46%
    08:00 +24°C° 0 mm 0 mps 740 mmHg 42%
    09:00 +27°C° 0 mm 1 mps 740 mmHg 39%
    10:00 +29°C° 0 mm 1 mps 740 mmHg 35%
    11:00 +31°C° 0 mm 2 mps 740 mmHg 31%
    12:00 +32°C° 0 mm 2 mps 740 mmHg 30%
    13:00 +32°C° 0 mm 2 mps 739 mmHg 29%
    14:00 +34°C° 0 mm 2 mps 739 mmHg 28%
    15:00 +34°C° 0 mm 2 mps 739 mmHg 29%
    16:00 +34°C° 0 mm 3 mps 739 mmHg 29%
    17:00 +34°C° 0 mm 3 mps 739 mmHg 30%
    18:00 +31°C° 0 mm 2 mps 739 mmHg 34%
    19:00 +28°C° 0 mm 2 mps 739 mmHg 38%
    20:00 +26°C° 0 mm 1 mps 739 mmHg 42%
    21:00 +25°C° 0 mm 1 mps 739 mmHg 43%
    22:00 +24°C° 0 mm 1 mps 740 mmHg 43%
    23:00 +23°C° 0 mm 1 mps 740 mmHg 44%

    21 August, Wednesday

    Time Temperature Precipitation Wind Pressure Humidity
    00:00 +23°C° 0 mm 1 mps 740 mmHg 45%
    01:00 +22°C° 0 mm 1 mps 740 mmHg 45%
    02:00 +22°C° 0 mm 1 mps 739 mmHg 45%
    03:00 +21°C° 0 mm 1 mps 739 mmHg 46%
    04:00 +21°C° 0 mm 1 mps 739 mmHg 46%
    05:00 +21°C° 0 mm 1 mps 739 mmHg 47%
    06:00 +23°C° 0 mm 1 mps 739 mmHg 45%
    07:00 +25°C° 0 mm 1 mps 740 mmHg 43%
    08:00 +26°C° 0 mm 1 mps 740 mmHg 41%
    09:00 +28°C° 0 mm 1 mps 740 mmHg 40%
    10:00 +29°C° 0 mm 2 mps 740 mmHg 39%
    11:00 +31°C° 0 mm 2 mps 740 mmHg 38%
    12:00 +32°C° 0 mm 2 mps 739 mmHg 36%
    13:00 +32°C° 0 mm 2 mps 739 mmHg 34%
    14:00 +34°C° 0 mm 2 mps 738 mmHg 32%
    15:00 +34°C° 0 mm 2 mps 738 mmHg 33%
    16:00 +34°C° 0 mm 2 mps 738 mmHg 33%
    17:00 +34°C° 0 mm 2 mps 737 mmHg 34%
    18:00 +31°C° 0 mm 1 mps 737 mmHg 38%
    19:00 +28°C° 0 mm 1 mps 738 mmHg 43%
    20:00 +26°C° 0 mm 1 mps 738 mmHg 48%
    21:00 +25°C° 0 mm 1 mps 738 mmHg 49%
    22:00 +25°C° 0 mm 1 mps 738 mmHg 49%
    23:00 +24°C° 0 mm 1 mps 738 mmHg 50%

    22 August, Thursday

    Time Temperature Precipitation Wind Pressure Humidity
    00:00 +24°C° 0 mm 1 mps 738 mmHg 50%
    01:00 +23°C° 0 mm 1 mps 738 mmHg 50%
    02:00 +23°C° 0 mm 1 mps 738 mmHg 50%
    03:00 +23°C° 0 mm 1 mps 738 mmHg 51%
    04:00 +22°C° 0 mm 1 mps 738 mmHg 51%
    05:00 +22°C° 0 mm 1 mps 737 mmHg 51%
    06:00 +24°C° 0 mm 1 mps 738 mmHg 48%
    07:00 +26°C° 0 mm 1 mps 738 mmHg 45%
    08:00 +27°C° 0 mm 1 mps 738 mmHg 42%
    09:00 +29°C° 0 mm 1 mps 738 mmHg 38%
    10:00 +31°C° 0 mm 2 mps 738 mmHg 34%
    11:00 +34°C° 0 mm 2 mps 738 mmHg 30%
    12:00 +35°C° 0 mm 2 mps 738 mmHg 28%
    13:00 +35°C° 0 mm 3 mps 738 mmHg 25%
    14:00 +36°C° 0 mm 3 mps 737 mmHg 23%
    15:00 +36°C° 0 mm 3 mps 737 mmHg 24%
    16:00 +36°C° 0 mm 3 mps 737 mmHg 24%
    17:00 +36°C° 0 mm 3 mps 737 mmHg 25%
    18:00 +33°C° 0 mm 3 mps 737 mmHg 29%
    19:00 +30°C° 0 mm 3 mps 737 mmHg 34%
    20:00 +27°C° 0 mm 2 mps 737 mmHg 39%
    21:00 +26°C° 0 mm 2 mps 738 mmHg 42%
    22:00 +25°C° 0 mm 2 mps 738 mmHg 45%
    23:00 +24°C° 0 mm 2 mps 738 mmHg 48%

    23 August, Friday

    Time Temperature Precipitation Wind Pressure Humidity
    00:00 +24°C° 0 mm 2 mps 738 mmHg 52%
    01:00 +23°C° 0 mm 2 mps 738 mmHg 56%
    02:00 +23°C° 0 mm 2 mps 738 mmHg 60%
    03:00 +21°C° 0 mm 2 mps 738 mmHg 64%
    04:00 +21°C° 0 mm 2 mps 738 mmHg 67%
    05:00 +20°C° 0 mm 2 mps 738 mmHg 71%
    06:00 +21°C° 0 mm 2 mps 738 mmHg 68%
    07:00 +24°C° 0 mm 2 mps 739 mmHg 64%
    08:00 +25°C° 0 mm 3 mps 739 mmHg 61%
    09:00 +27°C° 0 mm 3 mps 739 mmHg 55%
    10:00 +29°C° 0 mm 3 mps 739 mmHg 50%
    11:00 +30°C° 0 mm 3 mps 739 mmHg 44%
    12:00 +31°C° 0 mm 3 mps 739 mmHg 41%
    13:00 +33°C° 0 mm 3 mps 738 mmHg 37%
    14:00 +34°C° 0 mm 3 mps 738 mmHg 34%
    15:00 +35°C° 0 mm 3 mps 738 mmHg 33%
    16:00 +35°C° 0 mm 3 mps 738 mmHg 32%
    17:00 +35°C° 0 mm 2 mps 737 mmHg 31%
    18:00 +31°C° 0 mm 2 mps 737 mmHg 36%
    19:00 +29°C° 0 mm 2 mps 737 mmHg 41%
    20:00 +27°C° 0 mm 1 mps 738 mmHg 46%
    21:00 +26°C° 0 mm 1 mps 738 mmHg 48%
    22:00 +25°C° 0 mm 1 mps 738 mmHg 50%
    23:00 +24°C° 0 mm 1 mps 739 mmHg 52%
    Show more